CAPE
0 0 0 2 0 0 0 0 0 0 0 0 0 0 0 0 0 0 1 25 60 49 27 21 17 24 27 21 12 8 10 6 13 27 17 18 15 11 12 13 24 28 41
0 0 0 1 0 0 0 0 0 0 0 0 0 0 0 0 0 0 0 3 16 35 40 31 27 27 25 33 58 52 45 36 25 25 19 16 7 5 11 11 16 20 27
0 0 0 0 0 0 0 0 0 0 0 0 0 0 0 0 0 0 0 0 0 14 57 44 35 46 31 36 29 14 9 18 12 11 1 7 4 4 9 12 11 11 15
0 0 0 0 0 0 0 0 0 0 0 0 0 0 0 0 0 0 0 0 0 0 17 40 39 39 26 13 5 7 8 2 0 0 1 1 0 1 5 17 9 12 11
0 0 0 0 0 0 0 0 0 0 0 0 0 0 0 0 0 0 0 0 0 0 0 0 1 2 1 1 1 1 0 0 0 0 0 0 2 6 12 10 8 7 7
0 0 0 0 0 0 0 0 0 0 0 0 0 0 0 0 0 0 0 0 0 0 0 0 0 0 0 0 0 0 0 0 0 0 1 2 4 8 8 7 7 9 10
2 0 0 0 0 0 0 0 0 0 0 0 0 0 0 0 0 0 0 0 0 0 0 0 0 0 0 0 0 0 0 0 0 0 0 1 1 2 6 7 6 6 8
0 3 0 0 0 0 0 0 0 0 0 0 0 0 0 0 0 0 0 0 0 0 0 0 0 0 0 0 0 0 0 0 0 0 0 1 2 3 5 5 5 7 9
0 0 0 0 0 0 0 0 0 0 0 0 0 0 0 0 0 0 0 0 0 0 0 0 0 0 0 0 0 0 0 0 0 0 0 1 3 3 4 4 4 7 9
0 0 0 0 0 0 0 0 0 0 0 0 0 0 0 0 0 0 0 0 0 0 0 0 0 0 0 0 0 0 0 0 0 0 0 1 3 3 2 3 4 6 7
0 0 0 0 0 0 0 0 0 0 0 0 0 0 0 0 0 0 0 0 0 0 0 0 0 0 0 0 0 0 0 0 0 0 0 0 2 2 3 2 5 7 6
0 0 0 0 0 0 0 0 0 0 0 0 0 0 0 0 0 0 0 0 0 0 0 0 0 0 0 0 0 0 0 0 0 0 0 0 0 0 1 2 5 7 6
0 0 0 0 0 0 0 0 0 0 0 0 0 0 0 0 0 0 0 0 0 0 0 0 0 0 0 0 0 0 0 0 0 0 0 0 0 0 0 1 2 6 10
0 0 0 0 0 0 0 0 0 0 0 0 0 0 0 0 0 0 0 0 0 0 0 0 0 0 0 0 0 0 0 0 0 0 0 0 0 0 0 0 2 5 5
0 0 0 0 0 0 0 0 0 0 0 0 0 0 0 0 0 0 0 0 0 0 0 0 0 0 0 0 0 0 0 0 0 0 0 0 0 0 0 0 1 4 5
0 0 0 0 0 0 0 0 0 0 0 0 0 0 0 0 0 0 0 0 0 0 0 0 0 0 0 0 0 0 0 0 0 0 0 0 0 0 0 0 2 4 9
0 0 0 0 0 0 0 0 0 0 0 0 0 0 0 0 0 0 0 0 0 0 0 0 0 0 0 0 0 0 0 0 0 0 0 0 0 0 0 1 4 7 11
0 0 0 0 0 0 0 0 0 0 0 0 0 0 0 0 0 0 0 0 0 0 0 0 0 0 0 0 0 0 0 0 0 0 0 0 0 0 0 1 3 1 5
0 0 2 0 0 0 0 0 0 0 0 0 0 0 0 0 0 0 0 0 0 0 0 0 0 0 0 0 0 0 0 0 0 0 0 0 0 0 0 0 0 1 0
0 0 0 0 0 0 0 0 0 0 0 0 0 0 0 0 0 0 0 0 0 0 0 0 0 0 0 0 0 0 0 0 0 0 0 0 0 0 0 0 0 0 0
0 0 0 0 0 0 0 0 0 0 0 0 0 0 0 0 0 0 0 0 0 0 0 0 0 0 0 0 0 0 0 0 0 0 0 0 0 0 0 0 0 0 0
0 0 0 0 0 0 0 0 0 0 0 0 0 0 0 0 0 0 0 0 0 0 0 0 0 0 0 0 0 0 0 0 0 0 0 0 0 0 0 0 0 0 0
0 0 0 0 0 0 0 0 0 0 0 0 0 0 0 0 0 0 0 0 0 0 0 0 0 0 0 0 0 0 0 0 0 0 0 0 0 0 0 0 0 0 0
0 0 0 0 0 0 1 0 0 0 0 0 0 0 0 0 0 0 0 0 0 0 0 0 0 0 0 0 0 0 0 0 0 0 0 0 0 0 0 0 0 0 0
0 0 0 0 0 0 1 0 0 0 0 0 0 0 0 0 0 0 0 0 0 0 0 0 0 0 0 0 0 0 0 0 0 0 0 0 0 0 0 0 0 0 0
0 0 0 0 0 0 2 0 0 0 0 0 0 0 0 0 0 0 0 0 0 0 0 0 0 0 0 0 0 0 0 0 0 0 0 0 0 0 0 0 0 0 0
CIN
-0 -0 -0 -3 -0 -0 -0 -0 -0 -0 -0 -0 -0 -0 -0 -0 -0 -7 -32 -18 -1 -0 -1 -0 -0 -0 -1 -0 -0 -0 -0 -0 -0 -1 -1 -3 -2 -1 -0 -0 -0 -0 -0
-0 -0 -0 -1 -0 -0 -0 -0 -0 -0 -0 -0 -0 -0 -0 -0 -0 -0 -0 -36 -23 -3 -0 -0 -0 -0 -0 -0 -0 -0 -0 -0 -0 -0 -0 -1 -0 -0 -0 -0 -0 -0 -0
-0 -0 -0 -0 -0 -0 -0 -0 -0 -0 -0 -0 -0 -0 -0 -0 -0 -0 -0 -0 -0 -19 -0 -0 -0 -0 -0 -0 -0 -1 -0 -1 -0 -0 -0 -0 -0 -0 -0 -0 -0 -0 -0
-0 -0 -0 -0 -0 -0 -0 -0 -0 -0 -0 -0 -0 -0 -0 -0 -0 -0 -0 -0 -0 -0 -18 -2 -0 -0 -0 -0 -0 -0 -0 -0 -0 -0 -0 -0 -0 -0 -0 -0 -0 -0 -0
-0 -0 -0 -0 -0 -0 -0 -0 -0 -0 -0 -0 -0 -0 -0 -0 -0 -0 -0 -0 -0 -0 -0 -0 -15 -5 -0 -0 -0 -0 -0 -0 -0 -0 -0 -0 -0 -0 -0 -0 -0 -0 -0
-0 -0 -0 -0 -0 -0 -0 -0 -0 -0 -0 -0 -0 -0 -0 -0 -0 -0 -0 -0 -0 -0 -0 -0 -0 -0 -0 -0 -0 -0 -0 -0 -0 -0 -0 -0 -0 -0 -0 -0 -0 -0 -0
-0 -0 -0 -0 -0 -0 -0 -0 -0 -0 -0 -0 -0 -0 -0 -0 -0 -0 -0 -0 -0 -0 -0 -0 -0 -0 -0 -0 -0 -0 -0 -0 -0 -0 -0 -0 -0 -0 -0 -0 -0 -0 -0
-0 -0 -0 -0 -0 -0 -0 -0 -0 -0 -0 -0 -0 -0 -0 -0 -0 -0 -0 -0 -0 -0 -0 -0 -0 -0 -0 -0 -0 -0 -0 -0 -0 -0 -0 -0 -0 -0 -0 -0 -0 -0 -0
-0 -0 -0 -0 -0 -0 -0 -0 -0 -0 -0 -0 -0 -0 -0 -0 -0 -0 -0 -0 -0 -0 -0 -0 -0 -0 -0 -0 -0 -0 -0 -0 -0 -0 -0 -0 -0 -0 -0 -0 -0 -0 -0
-0 -0 -0 -0 -0 -0 -0 -0 -0 -0 -0 -0 -0 -0 -0 -0 -0 -0 -0 -0 -0 -0 -0 -0 -0 -0 -0 -0 -0 -0 -0 -0 -0 -0 -0 -0 -0 -0 -0 -0 -0 -0 -0
-0 -0 -0 -0 -0 -0 -0 -0 -0 -0 -0 -0 -0 -0 -0 -0 -0 -0 -0 -0 -0 -0 -0 -0 -0 -0 -0 -0 -0 -0 -0 -0 -0 -0 -0 -0 -0 -0 -0 -0 -0 -0 -0
-0 -0 -0 -0 -0 -0 -0 -0 -0 -0 -0 -0 -0 -0 -0 -0 -0 -0 -0 -0 -0 -0 -0 -0 -0 -0 -0 -0 -0 -0 -0 -0 -0 -0 -0 -0 -0 -0 -0 -0 -0 -0 -0
-0 -0 -0 -0 -0 -0 -0 -0 -0 -0 -0 -0 -0 -0 -0 -0 -0 -0 -0 -0 -0 -0 -0 -0 -0 -0 -0 -0 -0 -0 -0 -0 -0 -0 -0 -0 -0 -0 -0 -0 -0 -0 -0
-0 -0 -0 -0 -0 -0 -0 -0 -0 -0 -0 -0 -0 -0 -0 -0 -0 -0 -0 -0 -0 -0 -0 -0 -0 -0 -0 -0 -0 -0 -0 -0 -0 -0 -0 -0 -0 -0 -0 -0 -0 -0 -0
-0 -0 -0 -0 -0 -0 -0 -0 -0 -0 -0 -0 -0 -0 -0 -0 -0 -0 -0 -0 -0 -0 -0 -0 -0 -0 -0 -0 -0 -0 -0 -0 -0 -0 -0 -0 -0 -0 -0 -0 -0 -0 -0
-0 -0 -0 -0 -0 -0 -0 -0 -0 -0 -0 -0 -0 -0 -0 -0 -0 -0 -0 -0 -0 -0 -0 -0 -0 -0 -0 -0 -0 -0 -0 -0 -0 -0 -0 -0 -0 -0 -0 -0 -0 -0 -0
-0 -0 -0 -0 -0 -0 -0 -0 -0 -0 -0 -0 -0 -0 -0 -0 -0 -0 -0 -0 -0 -0 -0 -0 -0 -0 -0 -0 -0 -0 -0 -0 -0 -0 -0 -0 -0 -0 -0 -0 -0 -0 -0
-0 -0 -0 -0 -0 -0 -0 -0 -0 -0 -0 -0 -0 -0 -0 -0 -0 -0 -0 -0 -0 -0 -0 -0 -0 -0 -0 -0 -0 -0 -0 -0 -0 -0 -0 -0 -0 -0 -0 -0 -0 -0 -0
-0 -0 -40 -0 -0 -0 -0 -0 -0 -0 -0 -0 -0 -0 -0 -0 -0 -0 -0 -0 -0 -0 -0 -0 -0 -0 -0 -0 -0 -0 -0 -0 -0 -0 -0 -0 -0 -0 -0 -0 -0 -0 -0
-0 -0 -0 -0 -0 -0 -0 -0 -0 -0 -0 -0 -0 -0 -0 -0 -0 -0 -0 -0 -0 -0 -0 -0 -0 -0 -0 -0 -0 -0 -0 -0 -0 -0 -0 -0 -0 -0 -0 -0 -0 -0 -0
-0 -0 -0 -0 -0 -0 -0 -0 -0 -0 -0 -0 -0 -0 -0 -0 -0 -0 -0 -0 -0 -0 -0 -0 -0 -0 -0 -0 -0 -0 -0 -0 -0 -0 -0 -0 -0 -0 -0 -0 -0 -0 -0
-0 -0 -0 -0 -0 -0 -0 -0 -0 -0 -0 -0 -0 -0 -0 -0 -0 -0 -0 -0 -0 -0 -0 -0 -0 -0 -0 -0 -0 -0 -0 -0 -0 -0 -0 -0 -0 -0 -0 -0 -0 -0 -0
-0 -0 -0 -0 -0 -0 -0 -0 -0 -0 -0 -0 -0 -0 -0 -0 -0 -0 -0 -0 -0 -0 -0 -0 -0 -0 -0 -0 -0 -0 -0 -0 -0 -0 -0 -0 -0 -0 -0 -0 -0 -0 -0
-0 -0 -0 -0 -0 -0 -0 -0 -0 -0 -0 -0 -0 -0 -0 -0 -0 -0 -0 -0 -0 -0 -0 -0 -0 -0 -0 -0 -0 -0 -0 -0 -0 -0 -0 -0 -0 -0 -0 -0 -0 -0 -0
-0 -0 -0 -0 -0 -0 -0 -0 -0 -0 -0 -0 -0 -0 -0 -0 -0 -0 -0 -0 -0 -0 -0 -0 -0 -0 -0 -0 -0 -0 -0 -0 -0 -0 -0 -0 -0 -0 -0 -0 -0 -0 -0
-0 -0 -0 -0 -0 -0 -0 -0 -0 -0 -0 -0 -0 -0 -0 -0 -0 -0 -0 -0 -0 -0 -0 -0 -0 -0 -0 -0 -0 -0 -0 -0 -0 -0 -0 -0 -0 -0 -0 -0 -0 -0 -0
Wind_Speed
8 6 5 8 6 7 5 6 6 4 6 6 5 7 6 5 5 3 3 8 12 14 12 15 13 14 14 14 12 12 11 11 11 10 11 14 13 12 12 12 13 14 14
9 9 6 9 7 7 5 6 7 5 6 7 6 6 6 4 6 6 3 5 9 5 14 13 14 15 15 13 14 14 14 13 13 14 13 12 11 12 11 11 12 12 14
12 11 7 7 8 6 7 7 6 4 7 6 7 5 4 6 6 6 5 4 5 5 12 14 13 14 14 13 13 13 11 11 11 12 11 9 9 9 10 11 10 12 12
16 12 9 9 7 6 6 7 7 6 7 7 6 4 3 5 6 6 5 4 4 4 9 13 13 14 13 12 12 10 9 10 9 9 9 9 8 8 9 12 11 11 12
17 14 11 10 9 7 7 8 3 9 8 7 7 5 4 5 5 4 5 5 5 5 5 14 14 13 12 11 10 10 9 9 9 9 8 8 8 9 10 12 12 12 12
13 15 12 11 10 8 7 6 9 7 9 9 8 5 4 3 4 4 4 4 4 5 5 6 5 5 11 9 9 8 8 8 8 9 9 9 9 10 11 11 12 12 13
6 11 12 12 12 11 11 10 8 12 7 9 8 5 4 5 4 2 3 3 4 4 5 5 4 4 4 9 8 7 7 7 8 8 8 9 9 9 10 11 12 12 12
1 8 8 12 14 11 10 10 11 8 4 10 8 4 3 3 2 2 1 3 4 3 4 5 5 5 5 3 5 8 7 7 7 7 8 8 9 9 10 10 11 12 13
12 5 7 10 13 12 11 13 13 13 12 6 16 7 4 5 4 0 2 2 5 3 3 4 5 5 5 4 5 5 7 7 7 7 7 7 8 9 10 10 10 11 12
17 11 10 12 13 9 12 12 12 12 12 10 7 1 3 6 5 3 1 2 3 5 5 3 4 5 5 4 4 4 6 6 6 7 7 7 8 8 9 9 10 11 11
18 15 8 11 12 9 10 13 14 12 13 11 10 3 3 3 3 5 4 3 1 2 3 4 4 4 4 4 3 3 5 4 5 6 6 5 6 8 10 10 11 10 10
9 19 9 10 12 12 11 11 13 13 13 12 7 5 5 5 4 4 4 3 4 1 2 3 4 4 4 4 4 5 5 4 3 5 6 5 5 7 8 10 11 11 11
3 8 13 12 10 11 12 12 12 11 14 11 12 6 4 4 4 4 4 3 4 2 2 2 3 3 3 3 3 4 4 3 3 4 6 5 5 6 8 10 10 11 12
8 8 8 10 12 11 10 11 9 10 10 8 10 6 4 4 4 4 5 7 3 1 1 3 2 4 3 4 5 6 2 2 3 4 5 4 5 6 8 9 11 11 12
6 7 9 6 4 10 10 10 8 9 9 7 9 7 5 4 4 4 4 6 6 5 5 4 3 4 4 4 5 4 2 1 2 2 3 4 4 5 7 8 9 9 11
10 10 7 8 6 7 9 9 6 6 9 6 5 8 5 4 5 4 5 4 3 5 4 2 2 3 4 4 5 4 3 3 1 2 3 3 6 7 6 8 9 10 11
13 12 10 8 8 8 9 9 8 9 10 9 6 9 7 7 5 5 4 4 4 4 5 1 2 2 2 5 3 2 2 2 1 2 5 4 7 8 8 8 12 13 13
13 10 9 10 10 11 10 11 11 10 12 11 9 9 8 6 6 6 6 6 5 4 5 5 2 2 3 2 2 2 1 1 0 3 6 6 8 8 8 10 13 14 14
14 13 12 12 11 10 11 11 14 13 11 12 13 12 12 10 7 5 5 6 5 3 4 7 4 2 2 2 2 2 0 0 1 2 5 6 6 7 10 13 14 14 14
13 13 12 11 10 10 11 10 10 12 13 12 12 12 13 13 12 11 8 8 6 7 6 7 4 3 2 1 3 2 2 1 1 2 3 3 8 9 10 12 13 14 15
10 9 9 8 7 8 7 10 9 9 9 9 8 8 8 9 16 15 11 9 9 5 7 5 4 3 2 2 3 2 2 0 2 1 1 3 3 3 3 7 9 13 17
9 10 10 10 10 7 11 14 13 11 10 10 9 7 9 14 14 17 16 14 11 10 6 4 3 3 3 3 2 2 2 1 2 0 2 3 1 3 3 3 14 16 14
8 10 10 10 11 9 18 17 15 9 10 11 13 13 10 8 12 11 16 16 14 12 8 6 6 4 4 5 5 3 2 2 2 1 1 4 1 3 2 6 15 13 9
9 9 10 10 10 8 22 23 21 11 8 10 11 13 13 12 11 12 11 10 8 7 6 4 5 6 4 7 5 5 5 2 1 1 2 2 1 2 5 6 12 9 11
6 7 8 9 10 9 20 23 16 12 12 12 10 12 13 13 20 20 12 10 8 5 8 10 9 11 10 11 7 4 3 2 1 2 1 1 2 3 4 4 3 9 19
3 4 5 7 11 10 20 23 18 10 13 11 11 12 20 16 21 19 10 10 8 5 5 5 5 7 8 7 7 3 4 2 1 2 3 1 1 2 3 3 4 6 4
Wind_Direction
172 170 197 176 171 174 143 125 130 133 122 116 109 118 108 107 98 78 88 117 123 127 125 116 118 109 107 100 96 93 90 84 78 59 58 54 43 38 36 33 35 29 34
172 179 195 179 169 169 156 132 143 139 138 130 110 110 112 102 90 74 63 74 63 108 124 125 119 113 106 109 95 88 77 74 68 58 53 47 35 30 20 26 32 29 25
173 177 181 172 171 158 145 126 133 119 128 124 114 102 109 104 101 98 79 68 44 65 127 125 112 110 111 99 87 76 65 61 59 52 48 43 37 30 24 24 34 16 13
170 174 178 176 168 153 158 148 147 137 133 135 125 122 103 99 100 101 92 78 65 56 61 90 114 109 104 97 87 93 89 76 71 62 52 44 36 31 27 38 24 19 16
176 172 178 175 166 162 163 156 140 144 145 139 137 118 113 115 117 106 99 97 85 72 70 79 74 77 91 101 101 98 94 86 80 71 60 50 41 32 32 26 17 9 8
203 174 173 171 169 164 157 148 150 151 149 145 129 89 66 80 107 118 122 105 96 90 91 86 72 76 94 95 94 92 91 85 79 71 63 52 39 34 31 24 17 10 6
339 216 171 168 173 175 171 159 140 140 143 134 114 80 43 48 62 93 121 123 110 97 99 98 91 68 74 89 86 81 80 79 72 68 62 54 44 33 25 21 15 10 9
231 269 199 174 174 173 167 160 152 146 120 170 149 112 124 15 27 64 32 147 138 121 113 104 99 94 85 72 77 71 66 65 63 56 55 51 43 30 23 16 10 6 7
162 222 225 196 180 173 173 170 165 166 162 177 165 134 144 188 129 88 199 202 161 142 132 131 123 117 108 86 66 49 63 56 53 49 43 45 39 25 18 11 6 5 3
154 152 236 196 182 180 176 174 172 171 163 166 180 79 112 140 163 152 234 190 168 163 158 174 146 137 132 114 108 89 65 53 48 41 31 32 31 19 12 7 1 1 359
156 146 193 209 177 175 178 177 174 173 175 165 180 147 101 80 105 135 157 172 79 163 170 161 163 151 142 132 124 92 79 51 36 25 19 17 27 14 4 360 355 355 350
195 139 182 215 178 173 172 175 176 180 176 177 166 149 158 157 164 141 120 118 150 178 158 157 168 162 157 158 165 109 81 55 22 13 352 358 25 9 1 352 349 346 343
195 169 161 199 187 174 172 173 175 178 182 178 177 168 151 151 135 125 109 129 143 178 164 180 179 169 163 165 161 125 83 58 34 0 344 359 14 359 351 347 345 342 338
185 153 177 199 179 170 168 171 177 178 178 176 169 162 153 158 139 141 137 142 110 133 179 168 154 178 167 166 173 130 75 49 20 354 357 1 3 346 343 341 340 340 331
168 149 165 175 177 153 160 165 166 165 166 164 173 157 144 162 146 140 135 157 143 159 199 202 161 177 163 152 148 133 130 11 37 3 6 351 333 329 325 339 330 332 330
168 164 166 149 165 162 155 168 161 155 158 161 155 154 146 149 156 153 154 154 132 134 144 152 203 151 162 140 159 143 179 106 56 39 16 337 328 319 320 332 319 318 323
172 168 161 167 173 175 168 161 161 162 163 159 154 167 168 155 163 158 148 135 140 128 120 140 106 122 116 151 146 170 156 144 287 355 342 337 341 322 322 330 330 318 320
183 184 174 184 191 185 176 173 165 169 169 169 169 157 157 153 149 150 156 157 151 148 129 135 120 129 132 174 167 164 188 135 212 332 328 337 326 325 336 328 325 317 315
185 188 188 193 182 180 179 184 174 170 174 173 169 166 165 155 152 150 144 137 132 123 121 137 135 129 108 126 167 57 262 327 250 319 343 338 343 346 337 324 325 327 325
182 187 185 196 185 183 184 181 183 174 174 171 171 170 166 167 160 148 145 141 133 117 113 116 93 105 121 148 92 160 219 54 308 329 350 35 344 347 342 336 335 321 314
191 175 165 156 156 167 171 167 160 162 161 153 153 153 160 160 155 156 148 145 135 117 121 110 111 121 128 120 197 180 122 62 289 252 324 316 322 327 327 340 320 314 319
163 160 167 166 167 174 171 171 159 152 144 140 132 107 121 126 134 138 133 134 136 136 130 127 118 122 170 158 135 130 146 55 314 240 356 286 259 304 313 318 316 322 323
165 175 172 170 175 172 163 160 153 146 145 147 143 138 134 133 128 129 128 120 115 115 119 122 139 161 157 163 140 157 178 195 219 214 104 287 258 303 302 306 314 324 326
178 174 173 172 160 170 170 164 149 138 135 143 148 145 138 132 129 122 113 105 100 104 119 125 128 149 145 147 159 168 171 187 288 275 137 256 2 289 307 303 312 319 330
176 181 169 166 169 164 171 160 148 143 139 134 131 133 132 127 135 131 122 125 119 118 135 128 143 150 149 162 171 128 143 137 244 220 115 163 270 288 290 301 304 327 329
147 135 160 168 170 161 170 160 144 134 133 129 123 125 130 131 140 138 131 135 139 136 123 119 106 106 103 109 123 150 134 125 203 281 173 353 292 355 304 291 311 317 291